CDT,Max TemperatureF,Mean TemperatureF,Min TemperatureF,Max Dew PointF,MeanDew PointF,Min DewpointF,Max Humidity, Mean Humidity, Min Humidity, Max Sea Level PressureIn, Mean Sea Level PressureIn, Min Sea Level PressureIn, Max VisibilityMiles, Mean VisibilityMiles, Min VisibilityMiles, Max Wind SpeedMPH, Mean Wind SpeedMPH, Max Gust SpeedMPH,PrecipitationIn, CloudCover, Events, WindDirDegrees
2013-5-1,46,40,34,41,33,30,92,83,69,30.50,30.28,30.01,10,7,2,25,17,31,0.31,8,Rain-Snow-Thunderstorm,2
2013-5-2,54,45,36,31,29,24,78,59,32,30.63,30.53,30.42,10,10,10,23,12,30,0.00,4,,358
2013-5-3,54,41,28,28,24,19,86,51,26,30.42,30.24,30.09,10,10,10,22,8,29,0.00,1,,355
2013-5-4,47,43,39,39,31,24,88,65,52,30.19,30.11,30.05,10,10,3,23,12,32,0.00,8,,357
2013-5-5,57,48,39,46,41,37,92,82,64,30.21,30.17,30.12,10,10,7,14,9,21,0.03,6,Rain,360
2013-5-6,70,50,32,51,38,33,99,67,27,30.17,30.11,30.03,10,6,0,7,2,,0.01,3,Fog,271
2013-5-7,65,54,43,55,49,38,88,75,58,30.05,30.02,29.94,10,10,7,12,4,,0.05,5,Rain,129
2013-5-8,67,59,51,60,55,50,99,90,66,29.97,29.94,29.91,10,5,0,13,4,,0.16,6,Fog-Rain-Thunderstorm,140
2013-5-9,60,54,48,54,52,46,94,86,76,30.08,30.01,29.90,10,8,2,17,8,23,0.00,6,Rain,358
2013-5-10,71,57,44,53,46,35,99,69,28,30.13,30.09,30.02,10,8,0,10,4,9,0.00,3,Fog,350
2013-5-11,60,50,39,46,30,17,75,44,19,30.32,30.25,30.09,10,10,10,24,11,34,0.00,0,,350
2013-5-12,68,50,32,38,30,24,87,49,22,30.28,30.18,30.07,10,10,10,12,3,18,0.00,2,,144
2013-5-13,91,70,48,52,46,38,77,49,18,30.08,29.95,29.83,10,10,10,22,8,28,0.00,1,,183
2013-5-14,100,80,60,54,46,39,70,33,12,29.85,29.75,29.68,10,10,10,22,7,31,0.00,1,,310
2013-5-15,82,69,56,46,39,33,66,34,17,29.97,29.89,29.83,10,10,10,23,9,30,0.00,1,,71
2013-5-16,83,70,58,61,53,40,84,55,34,29.89,29.83,29.77,10,10,10,20,7,26,0.00,4,Rain-Thunderstorm,106
2013-5-17,89,74,58,60,57,52,90,58,28,29.88,29.83,29.77,10,10,5,16,7,29,0.00,1,,175
2013-5-18,81,72,63,67,62,58,87,73,57,29.89,29.80,29.67,10,9,3,38,9,45,0.11,5,Rain-Thunderstorm,144
2013-5-19,74,66,58,64,59,54,91,82,71,29.73,29.63,29.49,10,10,2,17,6,25,0.29,6,Rain-Thunderstorm,92
2013-5-20,70,63,57,56,52,48,91,71,47,29.66,29.59,29.53,10,10,7,18,10,26,0.02,7,Rain,271
2013-5-21,59,54,49,51,47,45,88,75,66,29.79,29.71,29.65,10,10,3,28,16,36,0.00,7,Rain,303
2013-5-22,60,54,48,50,48,45,95,83,69,30.05,29.88,29.77,10,9,2,22,15,29,0.00,8,Rain,328
2013-5-23,71,60,50,50,45,39,91,61,32,30.24,30.17,30.05,10,10,5,21,10,28,0.00,3,,69
2013-5-24,76,64,51,56,49,41,80,60,44,30.25,30.14,30.00,10,10,10,28,13,36,0.00,5,Thunderstorm,147
2013-5-25,77,68,60,68,63,56,95,80,66,30.07,29.98,29.90,10,10,5,26,14,34,0.21,5,Rain-Thunderstorm,135
2013-5-26,74,66,57,68,63,56,96,86,79,29.95,29.88,29.78,10,6,0,32,12,44,0.00,6,Fog-Rain-Thunderstorm,109
2013-5-27,76,68,59,65,61,55,92,78,65,29.97,29.77,29.65,10,10,1,25,11,38,0.88,5,Rain-Thunderstorm,107
2013-5-28,78,66,55,62,58,52,92,73,53,29.78,29.72,29.64,10,10,4,17,7,29,0.02,1,Rain,56
2013-5-29,74,66,59,68,63,56,99,85,69,29.68,29.60,29.47,10,8,2,25,11,37,0.62,5,Rain-Thunderstorm,146
2013-5-30,77,66,56,63,55,48,99,72,37,29.61,29.53,29.46,10,9,0,21,9,30,0.03,2,Fog-Rain-Thunderstorm,207
2013-5-31,74,64,56,51,46,43,79,52,34,29.71,29.65,29.61,10,10,10,24,13,36,0.00,2,,263